owner,sensor,date,latitude,longitude,vertical_datum,sea_water_temperature,qcFlag 
DISL,ioos:station:DISL:DISL:1,2019-02-01T00:30:00Z,30.2513,-88.0778,-1.72,15.81,11111222 
DISL,ioos:station:DISL:DISL:1,2019-02-01T01:30:00Z,30.2513,-88.0778,-1.72,13.4,11111222 
DISL,ioos:station:DISL:DISL:1,2019-02-01T02:30:00Z,30.2513,-88.0778,-1.72,11.25,11111222 
DISL,ioos:station:DISL:DISL:1,2019-02-01T03:30:00Z,30.2513,-88.0778,-1.72,10.9,11111222 
DISL,ioos:station:DISL:DISL:1,2019-02-01T04:30:00Z,30.2513,-88.0778,-1.72,11.01,11111222 
DISL,ioos:station:DISL:DISL:1,2019-02-01T05:30:00Z,30.2513,-88.0778,-1.72,10.84,11111222 
DISL,ioos:station:DISL:DISL:1,2019-02-01T06:30:00Z,30.2513,-88.0778,-1.72,10.45,11111222 
DISL,ioos:station:DISL:DISL:1,2019-02-01T07:30:00Z,30.2513,-88.0778,-1.72,10.24,11111222 
DISL,ioos:station:DISL:DISL:1,2019-02-01T08:30:00Z,30.2513,-88.0778,-1.72,10.25,11111222 
DISL,ioos:station:DISL:DISL:1,2019-02-01T09:30:00Z,30.2513,-88.0778,-1.72,10.32,11111222 
DISL,ioos:station:DISL:DISL:1,2019-02-01T10:30:00Z,30.2513,-88.0778,-1.72,10.44,11111222 
DISL,ioos:station:DISL:DISL:1,2019-02-01T11:30:00Z,30.2513,-88.0778,-1.72,10.29,11111222 
DISL,ioos:station:DISL:DISL:1,2019-02-01T12:30:00Z,30.2513,-88.0778,-1.72,10.14,11111222 
DISL,ioos:station:DISL:DISL:1,2019-02-01T13:30:00Z,30.2513,-88.0778,-1.72,10.09,11111222 
DISL,ioos:station:DISL:DISL:1,2019-02-01T14:30:00Z,30.2513,-88.0778,-1.72,10.06,11111222 
DISL,ioos:station:DISL:DISL:1,2019-02-01T15:30:00Z,30.2513,-88.0778,-1.72,10.07,11111222 
DISL,ioos:station:DISL:DISL:1,2019-02-01T16:30:00Z,30.2513,-88.0778,-1.72,10.32,11111222 
DISL,ioos:station:DISL:DISL:1,2019-02-01T17:30:00Z,30.2513,-88.0778,-1.72,10.71,11111222 
DISL,ioos:station:DISL:DISL:1,2019-02-01T18:30:00Z,30.2513,-88.0778,-1.72,10.73,11111222 
DISL,ioos:station:DISL:DISL:1,2019-02-01T19:30:00Z,30.2513,-88.0778,-1.72,10.82,11111222 
DISL,ioos:station:DISL:DISL:1,2019-02-01T20:30:00Z,30.2513,-88.0778,-1.72,12.69,11111222 
DISL,ioos:station:DISL:DISL:1,2019-02-01T21:30:00Z,30.2513,-88.0778,-1.72,14.33,11111222 
DISL,ioos:station:DISL:DISL:1,2019-02-01T22:30:00Z,30.2513,-88.0778,-1.72,15.22,11111222 
DISL,ioos:station:DISL:DISL:1,2019-02-01T23:30:00Z,30.2513,-88.0778,-1.72,15.46,11111222 
DISL,ioos:station:DISL:DISL:1,2019-02-02T00:30:00Z,30.2513,-88.0778,-1.72,15.32,11111222 
DISL,ioos:station:DISL:DISL:1,2019-02-02T01:30:00Z,30.2513,-88.0778,-1.72,12.75,11111222 
DISL,ioos:station:DISL:DISL:1,2019-02-02T02:30:00Z,30.2513,-88.0778,-1.72,11.42,11111222 
DISL,ioos:station:DISL:DISL:1,2019-02-02T03:30:00Z,30.2513,-88.0778,-1.72,11.18,11111222 
DISL,ioos:station:DISL:DISL:1,2019-02-02T04:30:00Z,30.2513,-88.0778,-1.72,11.45,11111222 
DISL,ioos:station:DISL:DISL:1,2019-02-02T05:30:00Z,30.2513,-88.0778,-1.72,10.77,11111222 
DISL,ioos:station:DISL:DISL:1,2019-02-02T06:30:00Z,30.2513,-88.0778,-1.72,10.25,11111222 
DISL,ioos:station:DISL:DISL:1,2019-02-02T07:30:00Z,30.2513,-88.0778,-1.72,10.21,11111222 
DISL,ioos:station:DISL:DISL:1,2019-02-02T08:30:00Z,30.2513,-88.0778,-1.72,10.26,11111222 
DISL,ioos:station:DISL:DISL:1,2019-02-02T09:30:00Z,30.2513,-88.0778,-1.72,10.25,11111222 
DISL,ioos:station:DISL:DISL:1,2019-02-02T10:30:00Z,30.2513,-88.0778,-1.72,10.21,11111222 
DISL,ioos:station:DISL:DISL:1,2019-02-02T11:30:00Z,30.2513,-88.0778,-1.72,10.19,11111222 
DISL,ioos:station:DISL:DISL:1,2019-02-02T12:30:00Z,30.2513,-88.0778,-1.72,10.18,11111222 
DISL,ioos:station:DISL:DISL:1,2019-02-02T13:30:00Z,30.2513,-88.0778,-1.72,10.2,11111222 
DISL,ioos:station:DISL:DISL:1,2019-02-02T14:30:00Z,30.2513,-88.0778,-1.72,10.23,11111222 
DISL,ioos:station:DISL:DISL:1,2019-02-02T15:30:00Z,30.2513,-88.0778,-1.72,10.29,11111222 
DISL,ioos:station:DISL:DISL:1,2019-02-02T16:30:00Z,30.2513,-88.0778,-1.72,10.38,11111222 
DISL,ioos:station:DISL:DISL:1,2019-02-02T17:30:00Z,30.2513,-88.0778,-1.72,10.5,11111222 
DISL,ioos:station:DISL:DISL:1,2019-02-02T18:30:00Z,30.2513,-88.0778,-1.72,10.54,11111222 
DISL,ioos:station:DISL:DISL:1,2019-02-02T19:30:00Z,30.2513,-88.0778,-1.72,10.73,11111222 
DISL,ioos:station:DISL:DISL:1,2019-02-02T20:30:00Z,30.2513,-88.0778,-1.72,10.72,11111222 
DISL,ioos:station:DISL:DISL:1,2019-02-02T21:30:00Z,30.2513,-88.0778,-1.72,11.37,11111222 
DISL,ioos:station:DISL:DISL:1,2019-02-02T22:30:00Z,30.2513,-88.0778,-1.72,12.86,11111222 
DISL,ioos:station:DISL:DISL:1,2019-02-02T23:30:00Z,30.2513,-88.0778,-1.72,14.22,11111222 
DISL,ioos:station:DISL:DISL:1,2019-02-03T00:30:00Z,30.2513,-88.0778,-1.72,15.08,11111222 
DISL,ioos:station:DISL:DISL:1,2019-02-03T01:30:00Z,30.2513,-88.0778,-1.72,15.16,11111222 
DISL,ioos:station:DISL:DISL:1,2019-02-03T02:30:00Z,30.2513,-88.0778,-1.72,12.41,11111222 
DISL,ioos:station:DISL:DISL:1,2019-02-03T03:30:00Z,30.2513,-88.0778,-1.72,12.42,11111222 
DISL,ioos:station:DISL:DISL:1,2019-02-03T04:30:00Z,30.2513,-88.0778,-1.72,12.22,11111222 
DISL,ioos:station:DISL:DISL:1,2019-02-03T05:30:00Z,30.2513,-88.0778,-1.72,12.19,11111222 
DISL,ioos:station:DISL:DISL:1,2019-02-03T06:30:00Z,30.2513,-88.0778,-1.72,12.13,11111222 
DISL,ioos:station:DISL:DISL:1,2019-02-03T07:30:00Z,30.2513,-88.0778,-1.72,12.05,11111222 
DISL,ioos:station:DISL:DISL:1,2019-02-03T08:30:00Z,30.2513,-88.0778,-1.72,11.38,11111222 
DISL,ioos:station:DISL:DISL:1,2019-02-03T09:30:00Z,30.2513,-88.0778,-1.72,11.21,11111222 
DISL,ioos:station:DISL:DISL:1,2019-02-03T10:30:00Z,30.2513,-88.0778,-1.72,11.18,11111222 
DISL,ioos:station:DISL:DISL:1,2019-02-03T11:30:00Z,30.2513,-88.0778,-1.72,11.17,11111222 
DISL,ioos:station:DISL:DISL:1,2019-02-03T12:30:00Z,30.2513,-88.0778,-1.72,10.97,11111222 
DISL,ioos:station:DISL:DISL:1,2019-02-03T13:30:00Z,30.2513,-88.0778,-1.72,10.88,11111222 
DISL,ioos:station:DISL:DISL:1,2019-02-03T14:30:00Z,30.2513,-88.0778,-1.72,10.84,11111222 
DISL,ioos:station:DISL:DISL:1,2019-02-03T15:30:00Z,30.2513,-88.0778,-1.72,10.84,11111222 
DISL,ioos:station:DISL:DISL:1,2019-02-03T16:30:00Z,30.2513,-88.0778,-1.72,11.06,11111222 
DISL,ioos:station:DISL:DISL:1,2019-02-03T17:30:00Z,30.2513,-88.0778,-1.72,11.2,11111222 
DISL,ioos:station:DISL:DISL:1,2019-02-03T18:30:00Z,30.2513,-88.0778,-1.72,11.09,11111222 
DISL,ioos:station:DISL:DISL:1,2019-02-03T19:30:00Z,30.2513,-88.0778,-1.72,11.29,11111222 
DISL,ioos:station:DISL:DISL:1,2019-02-03T20:30:00Z,30.2513,-88.0778,-1.72,11.39,11111222 
DISL,ioos:station:DISL:DISL:1,2019-02-03T21:30:00Z,30.2513,-88.0778,-1.72,11.55,11111222 
DISL,ioos:station:DISL:DISL:1,2019-02-03T23:00:00Z,30.2513,-88.0778,-1.72,12.1,11111222 
DISL,ioos:station:DISL:DISL:1,2019-02-03T23:30:00Z,30.2513,-88.0778,-1.72,12.93,11111222 
DISL,ioos:station:DISL:DISL:1,2019-02-04T00:30:00Z,30.2513,-88.0778,-1.72,13.72,11111222 
DISL,ioos:station:DISL:DISL:1,2019-02-04T01:30:00Z,30.2513,-88.0778,-1.72,14.02,11111222 
DISL,ioos:station:DISL:DISL:1,2019-02-04T02:30:00Z,30.2513,-88.0778,-1.72,13.59,11111222 
DISL,ioos:station:DISL:DISL:1,2019-02-04T03:30:00Z,30.2513,-88.0778,-1.72,13.35,11111222 
DISL,ioos:station:DISL:DISL:1,2019-02-04T04:30:00Z,30.2513,-88.0778,-1.72,13.45,11111222 
DISL,ioos:station:DISL:DISL:1,2019-02-04T05:30:00Z,30.2513,-88.0778,-1.72,13.55,11111222 
DISL,ioos:station:DISL:DISL:1,2019-02-04T06:30:00Z,30.2513,-88.0778,-1.72,13.61,11111222 
DISL,ioos:station:DISL:DISL:1,2019-02-04T07:30:00Z,30.2513,-88.0778,-1.72,12.58,11111222 
DISL,ioos:station:DISL:DISL:1,2019-02-04T08:30:00Z,30.2513,-88.0778,-1.72,11.33,11111222 
DISL,ioos:station:DISL:DISL:1,2019-02-04T09:30:00Z,30.2513,-88.0778,-1.72,11.26,11111222 
DISL,ioos:station:DISL:DISL:1,2019-02-04T10:30:00Z,30.2513,-88.0778,-1.72,11.29,11111222 
DISL,ioos:station:DISL:DISL:1,2019-02-04T11:30:00Z,30.2513,-88.0778,-1.72,11.61,11111222 
DISL,ioos:station:DISL:DISL:1,2019-02-04T12:30:00Z,30.2513,-88.0778,-1.72,11.5,11111222 
DISL,ioos:station:DISL:DISL:1,2019-02-04T13:30:00Z,30.2513,-88.0778,-1.72,11.6,11111222 
DISL,ioos:station:DISL:DISL:1,2019-02-04T14:30:00Z,30.2513,-88.0778,-1.72,11.65,11111222 
DISL,ioos:station:DISL:DISL:1,2019-02-04T15:30:00Z,30.2513,-88.0778,-1.72,11.92,11111222 
DISL,ioos:station:DISL:DISL:1,2019-02-04T16:30:00Z,30.2513,-88.0778,-1.72,11.9,11111222 
DISL,ioos:station:DISL:DISL:1,2019-02-04T17:30:00Z,30.2513,-88.0778,-1.72,11.93,11111222 
DISL,ioos:station:DISL:DISL:1,2019-02-04T18:30:00Z,30.2513,-88.0778,-1.72,11.99,11111222 
DISL,ioos:station:DISL:DISL:1,2019-02-04T19:30:00Z,30.2513,-88.0778,-1.72,12.16,11111222 
DISL,ioos:station:DISL:DISL:1,2019-02-04T20:30:00Z,30.2513,-88.0778,-1.72,12.15,11111222 
DISL,ioos:station:DISL:DISL:1,2019-02-04T21:30:00Z,30.2513,-88.0778,-1.72,12.16,11111222 
DISL,ioos:station:DISL:DISL:1,2019-02-04T22:30:00Z,30.2513,-88.0778,-1.72,12.82,11111222 
DISL,ioos:station:DISL:DISL:1,2019-02-04T23:30:00Z,30.2513,-88.0778,-1.72,13.47,11111222 
DISL,ioos:station:DISL:DISL:1,2019-02-05T00:30:00Z,30.2513,-88.0778,-1.72,13.62,11111222 
DISL,ioos:station:DISL:DISL:1,2019-02-05T01:30:00Z,30.2513,-88.0778,-1.72,14.02,11111222 
DISL,ioos:station:DISL:DISL:1,2019-02-05T02:30:00Z,30.2513,-88.0778,-1.72,14.01,11111222 
DISL,ioos:station:DISL:DISL:1,2019-02-05T03:30:00Z,30.2513,-88.0778,-1.72,13.4,11111222 
DISL,ioos:station:DISL:DISL:1,2019-02-05T04:30:00Z,30.2513,-88.0778,-1.72,13.27,11111222 
DISL,ioos:station:DISL:DISL:1,2019-02-05T05:30:00Z,30.2513,-88.0778,-1.72,13.33,11111222 
DISL,ioos:station:DISL:DISL:1,2019-02-05T06:30:00Z,30.2513,-88.0778,-1.72,13.35,11111222 
DISL,ioos:station:DISL:DISL:1,2019-02-05T07:30:00Z,30.2513,-88.0778,-1.72,13.29,11111222 
DISL,ioos:station:DISL:DISL:1,2019-02-05T08:30:00Z,30.2513,-88.0778,-1.72,11.5,11111222 
DISL,ioos:station:DISL:DISL:1,2019-02-05T09:30:00Z,30.2513,-88.0778,-1.72,11.22,11111222 
DISL,ioos:station:DISL:DISL:1,2019-02-05T10:30:00Z,30.2513,-88.0778,-1.72,11.31,11111222 
DISL,ioos:station:DISL:DISL:1,2019-02-05T11:30:00Z,30.2513,-88.0778,-1.72,11.37,11111222 
DISL,ioos:station:DISL:DISL:1,2019-02-05T12:30:00Z,30.2513,-88.0778,-1.72,11.55,11111222 
DISL,ioos:station:DISL:DISL:1,2019-02-05T14:00:00Z,30.2513,-88.0778,-1.72,11.71,11111222 
DISL,ioos:station:DISL:DISL:1,2019-02-05T15:00:00Z,30.2513,-88.0778,-1.72,11.79,11111222 
DISL,ioos:station:DISL:DISL:1,2019-02-05T16:00:00Z,30.2513,-88.0778,-1.72,11.96,11111222 
DISL,ioos:station:DISL:DISL:1,2019-02-05T17:00:00Z,30.2513,-88.0778,-1.72,11.74,11111222 
DISL,ioos:station:DISL:DISL:1,2019-02-05T18:00:00Z,30.2513,-88.0778,-1.72,11.68,11111222 
DISL,ioos:station:DISL:DISL:1,2019-02-05T19:00:00Z,30.2513,-88.0778,-1.72,12.33,11111222 
DISL,ioos:station:DISL:DISL:1,2019-02-05T20:00:00Z,30.2513,-88.0778,-1.72,12.3,11111222 
DISL,ioos:station:DISL:DISL:1,2019-02-05T21:00:00Z,30.2513,-88.0778,-1.72,12.57,11111222 
DISL,ioos:station:DISL:DISL:1,2019-02-05T22:00:00Z,30.2513,-88.0778,-1.72,12.68,11111222 
DISL,ioos:station:DISL:DISL:1,2019-02-05T23:00:00Z,30.2513,-88.0778,-1.72,13.18,11111222 
DISL,ioos:station:DISL:DISL:1,2019-02-05T23:30:00Z,30.2513,-88.0778,-1.72,13.36,11111222 
DISL,ioos:station:DISL:DISL:1,2019-02-06T00:30:00Z,30.2513,-88.0778,-1.72,14.2,11111222 
DISL,ioos:station:DISL:DISL:1,2019-02-06T01:30:00Z,30.2513,-88.0778,-1.72,14.49,11111222 
DISL,ioos:station:DISL:DISL:1,2019-02-06T02:30:00Z,30.2513,-88.0778,-1.72,14.74,11111222 
DISL,ioos:station:DISL:DISL:1,2019-02-06T03:30:00Z,30.2513,-88.0778,-1.72,14.45,11111222 
DISL,ioos:station:DISL:DISL:1,2019-02-06T04:30:00Z,30.2513,-88.0778,-1.72,13.57,11111222 
DISL,ioos:station:DISL:DISL:1,2019-02-06T05:30:00Z,30.2513,-88.0778,-1.72,13.63,11111222 
DISL,ioos:station:DISL:DISL:1,2019-02-06T06:30:00Z,30.2513,-88.0778,-1.72,13.8,11111222 
DISL,ioos:station:DISL:DISL:1,2019-02-06T07:30:00Z,30.2513,-88.0778,-1.72,13.87,11111222 
DISL,ioos:station:DISL:DISL:1,2019-02-06T08:30:00Z,30.2513,-88.0778,-1.72,12.17,11111222 
DISL,ioos:station:DISL:DISL:1,2019-02-06T09:30:00Z,30.2513,-88.0778,-1.72,12.01,11111222 
DISL,ioos:station:DISL:DISL:1,2019-02-06T10:30:00Z,30.2513,-88.0778,-1.72,12.64,11111222 
DISL,ioos:station:DISL:DISL:1,2019-02-06T12:00:00Z,30.2513,-88.0778,-1.72,12.83,11111222 
DISL,ioos:station:DISL:DISL:1,2019-02-06T13:00:00Z,30.2513,-88.0778,-1.72,12.68,11111222 
DISL,ioos:station:DISL:DISL:1,2019-02-06T14:00:00Z,30.2513,-88.0778,-1.72,12.73,11111222 
DISL,ioos:station:DISL:DISL:1,2019-02-06T15:00:00Z,30.2513,-88.0778,-1.72,13.03,11111222 
DISL,ioos:station:DISL:DISL:1,2019-02-06T16:00:00Z,30.2513,-88.0778,-1.72,12.76,11111222 
DISL,ioos:station:DISL:DISL:1,2019-02-06T17:00:00Z,30.2513,-88.0778,-1.72,12.91,11111222 
DISL,ioos:station:DISL:DISL:1,2019-02-06T18:00:00Z,30.2513,-88.0778,-1.72,12.29,11111222 
DISL,ioos:station:DISL:DISL:1,2019-02-06T19:00:00Z,30.2513,-88.0778,-1.72,12.37,11111222 
DISL,ioos:station:DISL:DISL:1,2019-02-06T20:00:00Z,30.2513,-88.0778,-1.72,12.48,11111222 
DISL,ioos:station:DISL:DISL:1,2019-02-06T21:00:00Z,30.2513,-88.0778,-1.72,12.79,11111222 
DISL,ioos:station:DISL:DISL:1,2019-02-06T23:00:00Z,30.2513,-88.0778,-1.72,13.7,11111222 
DISL,ioos:station:DISL:DISL:1,2019-02-06T23:30:00Z,30.2513,-88.0778,-1.72,13.96,11111222 
DISL,ioos:station:DISL:DISL:1,2019-02-07T00:30:00Z,30.2513,-88.0778,-1.72,13.73,11111222 
DISL,ioos:station:DISL:DISL:1,2019-02-07T01:30:00Z,30.2513,-88.0778,-1.72,13.92,11111222 
DISL,ioos:station:DISL:DISL:1,2019-02-07T02:30:00Z,30.2513,-88.0778,-1.72,14.66,11111222 
DISL,ioos:station:DISL:DISL:1,2019-02-07T03:30:00Z,30.2513,-88.0778,-1.72,14.73,11111222 
DISL,ioos:station:DISL:DISL:1,2019-02-07T04:30:00Z,30.2513,-88.0778,-1.72,14.49,11111222 
DISL,ioos:station:DISL:DISL:1,2019-02-07T05:30:00Z,30.2513,-88.0778,-1.72,14.73,11111222 
DISL,ioos:station:DISL:DISL:1,2019-02-07T06:30:00Z,30.2513,-88.0778,-1.72,14.95,11111222 
DISL,ioos:station:DISL:DISL:1,2019-02-07T08:00:00Z,30.2513,-88.0778,-1.72,15.16,11111222 
DISL,ioos:station:DISL:DISL:1,2019-02-07T08:30:00Z,30.2513,-88.0778,-1.72,15.21,11111222 
DISL,ioos:station:DISL:DISL:1,2019-02-07T09:30:00Z,30.2513,-88.0778,-1.72,12.44,11111222 
DISL,ioos:station:DISL:DISL:1,2019-02-07T10:30:00Z,30.2513,-88.0778,-1.72,12.61,11111222 
DISL,ioos:station:DISL:DISL:1,2019-02-07T11:30:00Z,30.2513,-88.0778,-1.72,12.88,11111222 
DISL,ioos:station:DISL:DISL:1,2019-02-07T12:30:00Z,30.2513,-88.0778,-1.72,13.16,11111222 
DISL,ioos:station:DISL:DISL:1,2019-02-07T13:30:00Z,30.2513,-88.0778,-1.72,13.5,11111222 
DISL,ioos:station:DISL:DISL:1,2019-02-07T15:00:00Z,30.2513,-88.0778,-1.72,14.0,11111222 
DISL,ioos:station:DISL:DISL:1,2019-02-07T16:00:00Z,30.2513,-88.0778,-1.72,14.38,11111222 
DISL,ioos:station:DISL:DISL:1,2019-02-07T17:00:00Z,30.2513,-88.0778,-1.72,13.38,11111222 
DISL,ioos:station:DISL:DISL:1,2019-02-07T18:00:00Z,30.2513,-88.0778,-1.72,13.24,11111222 
DISL,ioos:station:DISL:DISL:1,2019-02-07T19:00:00Z,30.2513,-88.0778,-1.72,13.25,11111222 
DISL,ioos:station:DISL:DISL:1,2019-02-07T20:00:00Z,30.2513,-88.0778,-1.72,13.59,11111222 
DISL,ioos:station:DISL:DISL:1,2019-02-07T21:00:00Z,30.2513,-88.0778,-1.72,14.43,11111222 
DISL,ioos:station:DISL:DISL:1,2019-02-07T22:00:00Z,30.2513,-88.0778,-1.72,14.67,11111222 
DISL,ioos:station:DISL:DISL:1,2019-02-07T23:00:00Z,30.2513,-88.0778,-1.72,13.55,11111222 
DISL,ioos:station:DISL:DISL:1,2019-02-07T23:30:00Z,30.2513,-88.0778,-1.72,13.34,11111222 
DISL,ioos:station:DISL:DISL:1,2019-02-08T00:30:00Z,30.2513,-88.0778,-1.72,13.26,11111222 
DISL,ioos:station:DISL:DISL:1,2019-02-08T01:30:00Z,30.2513,-88.0778,-1.72,13.66,11111222 
DISL,ioos:station:DISL:DISL:1,2019-02-08T02:30:00Z,30.2513,-88.0778,-1.72,13.91,11111222 
DISL,ioos:station:DISL:DISL:1,2019-02-08T03:30:00Z,30.2513,-88.0778,-1.72,14.44,11111222 
DISL,ioos:station:DISL:DISL:1,2019-02-08T04:30:00Z,30.2513,-88.0778,-1.72,14.47,11111222 
DISL,ioos:station:DISL:DISL:1,2019-02-08T05:30:00Z,30.2513,-88.0778,-1.72,15.89,11111222 
DISL,ioos:station:DISL:DISL:1,2019-02-08T06:30:00Z,30.2513,-88.0778,-1.72,16.67,11111222 
DISL,ioos:station:DISL:DISL:1,2019-02-08T07:30:00Z,30.2513,-88.0778,-1.72,16.83,11111222 
DISL,ioos:station:DISL:DISL:1,2019-02-08T08:30:00Z,30.2513,-88.0778,-1.72,16.55,11111222 
DISL,ioos:station:DISL:DISL:1,2019-02-08T09:30:00Z,30.2513,-88.0778,-1.72,13.78,11111222 
DISL,ioos:station:DISL:DISL:1,2019-02-08T10:30:00Z,30.2513,-88.0778,-1.72,13.06,11111222 
DISL,ioos:station:DISL:DISL:1,2019-02-08T11:30:00Z,30.2513,-88.0778,-1.72,13.45,11111222 
DISL,ioos:station:DISL:DISL:1,2019-02-08T12:30:00Z,30.2513,-88.0778,-1.72,13.53,11111222 
DISL,ioos:station:DISL:DISL:1,2019-02-08T13:30:00Z,30.2513,-88.0778,-1.72,13.79,11111222 
DISL,ioos:station:DISL:DISL:1,2019-02-08T15:00:00Z,30.2513,-88.0778,-1.72,13.53,11111222 
DISL,ioos:station:DISL:DISL:1,2019-02-08T16:00:00Z,30.2513,-88.0778,-1.72,13.84,11111222 
DISL,ioos:station:DISL:DISL:1,2019-02-08T16:30:00Z,30.2513,-88.0778,-1.72,14.41,11111222 
DISL,ioos:station:DISL:DISL:1,2019-02-08T18:00:00Z,30.2513,-88.0778,-1.72,14.41,11111222 
DISL,ioos:station:DISL:DISL:1,2019-02-08T19:00:00Z,30.2513,-88.0778,-1.72,14.51,11111222 
DISL,ioos:station:DISL:DISL:1,2019-02-08T20:00:00Z,30.2513,-88.0778,-1.72,14.49,11111222 
DISL,ioos:station:DISL:DISL:1,2019-02-08T21:00:00Z,30.2513,-88.0778,-1.72,14.25,11111222 
DISL,ioos:station:DISL:DISL:1,2019-02-08T22:00:00Z,30.2513,-88.0778,-1.72,13.56,11111222 
DISL,ioos:station:DISL:DISL:1,2019-02-08T23:00:00Z,30.2513,-88.0778,-1.72,13.57,11111222 
DISL,ioos:station:DISL:DISL:1,2019-02-08T23:30:00Z,30.2513,-88.0778,-1.72,13.56,11111222 
DISL,ioos:station:DISL:DISL:1,2019-02-09T00:30:00Z,30.2513,-88.0778,-1.72,13.57,11111222 
DISL,ioos:station:DISL:DISL:1,2019-02-09T01:30:00Z,30.2513,-88.0778,-1.72,13.45,11111222 
DISL,ioos:station:DISL:DISL:1,2019-02-09T02:30:00Z,30.2513,-88.0778,-1.72,12.5,11111222 
DISL,ioos:station:DISL:DISL:1,2019-02-09T03:30:00Z,30.2513,-88.0778,-1.72,13.2,11111222 
DISL,ioos:station:DISL:DISL:1,2019-02-09T04:30:00Z,30.2513,-88.0778,-1.72,13.09,11111222 
DISL,ioos:station:DISL:DISL:1,2019-02-09T05:30:00Z,30.2513,-88.0778,-1.72,12.75,11111222 
DISL,ioos:station:DISL:DISL:1,2019-02-09T06:30:00Z,30.2513,-88.0778,-1.72,12.73,11111222 
DISL,ioos:station:DISL:DISL:1,2019-02-09T07:30:00Z,30.2513,-88.0778,-1.72,12.48,11111222 
DISL,ioos:station:DISL:DISL:1,2019-02-09T08:30:00Z,30.2513,-88.0778,-1.72,12.15,11111222 
DISL,ioos:station:DISL:DISL:1,2019-02-09T09:30:00Z,30.2513,-88.0778,-1.72,12.23,11111222 
DISL,ioos:station:DISL:DISL:1,2019-02-09T10:30:00Z,30.2513,-88.0778,-1.72,11.33,11111222 
DISL,ioos:station:DISL:DISL:1,2019-02-09T11:30:00Z,30.2513,-88.0778,-1.72,11.07,11111222 
DISL,ioos:station:DISL:DISL:1,2019-02-09T12:30:00Z,30.2513,-88.0778,-1.72,11.86,11111222 
DISL,ioos:station:DISL:DISL:1,2019-02-09T13:30:00Z,30.2513,-88.0778,-1.72,12.02,11111222 
DISL,ioos:station:DISL:DISL:1,2019-02-09T14:30:00Z,30.2513,-88.0778,-1.72,12.02,11111222 
DISL,ioos:station:DISL:DISL:1,2019-02-09T15:30:00Z,30.2513,-88.0778,-1.72,11.84,11111222 
DISL,ioos:station:DISL:DISL:1,2019-02-09T16:30:00Z,30.2513,-88.0778,-1.72,11.8,11111222 
DISL,ioos:station:DISL:DISL:1,2019-02-09T17:30:00Z,30.2513,-88.0778,-1.72,12.12,11111222 
DISL,ioos:station:DISL:DISL:1,2019-02-09T18:30:00Z,30.2513,-88.0778,-1.72,12.55,11111222 
DISL,ioos:station:DISL:DISL:1,2019-02-09T19:30:00Z,30.2513,-88.0778,-1.72,13.58,11111222 
DISL,ioos:station:DISL:DISL:1,2019-02-09T20:30:00Z,30.2513,-88.0778,-1.72,14.0,11111222 
DISL,ioos:station:DISL:DISL:1,2019-02-09T21:30:00Z,30.2513,-88.0778,-1.72,14.0,11111222 
DISL,ioos:station:DISL:DISL:1,2019-02-09T22:30:00Z,30.2513,-88.0778,-1.72,13.27,11111222 
DISL,ioos:station:DISL:DISL:1,2019-02-09T23:30:00Z,30.2513,-88.0778,-1.72,13.79,11111222 
DISL,ioos:station:DISL:DISL:1,2019-02-10T00:30:00Z,30.2513,-88.0778,-1.72,13.01,11111222 
DISL,ioos:station:DISL:DISL:1,2019-02-10T01:30:00Z,30.2513,-88.0778,-1.72,12.34,11111222 
DISL,ioos:station:DISL:DISL:1,2019-02-10T02:30:00Z,30.2513,-88.0778,-1.72,12.32,11111222 
DISL,ioos:station:DISL:DISL:1,2019-02-10T03:30:00Z,30.2513,-88.0778,-1.72,12.47,11111222 
DISL,ioos:station:DISL:DISL:1,2019-02-10T04:30:00Z,30.2513,-88.0778,-1.72,12.39,11111222 
DISL,ioos:station:DISL:DISL:1,2019-02-10T05:30:00Z,30.2513,-88.0778,-1.72,12.36,11111222 
DISL,ioos:station:DISL:DISL:1,2019-02-10T06:30:00Z,30.2513,-88.0778,-1.72,12.33,11111222 
DISL,ioos:station:DISL:DISL:1,2019-02-10T07:30:00Z,30.2513,-88.0778,-1.72,13.3,11111222 
DISL,ioos:station:DISL:DISL:1,2019-02-10T08:30:00Z,30.2513,-88.0778,-1.72,15.92,11111222 
DISL,ioos:station:DISL:DISL:1,2019-02-10T09:30:00Z,30.2513,-88.0778,-1.72,16.79,11111222 
DISL,ioos:station:DISL:DISL:1,2019-02-10T10:30:00Z,30.2513,-88.0778,-1.72,13.63,11111222 
DISL,ioos:station:DISL:DISL:1,2019-02-10T11:30:00Z,30.2513,-88.0778,-1.72,12.82,11111222 
DISL,ioos:station:DISL:DISL:1,2019-02-10T12:30:00Z,30.2513,-88.0778,-1.72,12.25,11111222 
DISL,ioos:station:DISL:DISL:1,2019-02-10T13:30:00Z,30.2513,-88.0778,-1.72,12.42,11111222 
DISL,ioos:station:DISL:DISL:1,2019-02-10T14:30:00Z,30.2513,-88.0778,-1.72,12.66,11111222 
DISL,ioos:station:DISL:DISL:1,2019-02-10T15:30:00Z,30.2513,-88.0778,-1.72,12.8,11111222 
DISL,ioos:station:DISL:DISL:1,2019-02-10T16:30:00Z,30.2513,-88.0778,-1.72,12.93,11111222 
DISL,ioos:station:DISL:DISL:1,2019-02-10T17:30:00Z,30.2513,-88.0778,-1.72,13.48,11111222 
DISL,ioos:station:DISL:DISL:1,2019-02-10T18:30:00Z,30.2513,-88.0778,-1.72,15.28,11111222 
DISL,ioos:station:DISL:DISL:1,2019-02-10T19:30:00Z,30.2513,-88.0778,-1.72,15.5,11111222 
DISL,ioos:station:DISL:DISL:1,2019-02-10T20:30:00Z,30.2513,-88.0778,-1.72,16.03,11111222 
DISL,ioos:station:DISL:DISL:1,2019-02-10T21:30:00Z,30.2513,-88.0778,-1.72,16.05,11111222 
DISL,ioos:station:DISL:DISL:1,2019-02-10T22:30:00Z,30.2513,-88.0778,-1.72,14.68,11111222 
DISL,ioos:station:DISL:DISL:1,2019-02-10T23:30:00Z,30.2513,-88.0778,-1.72,16.5,11111222 
DISL,ioos:station:DISL:DISL:1,2019-02-11T00:30:00Z,30.2513,-88.0778,-1.72,14.74,11111222 
DISL,ioos:station:DISL:DISL:1,2019-02-11T01:30:00Z,30.2513,-88.0778,-1.72,14.64,11111222 
DISL,ioos:station:DISL:DISL:1,2019-02-11T02:30:00Z,30.2513,-88.0778,-1.72,13.83,11111222 
DISL,ioos:station:DISL:DISL:1,2019-02-11T03:30:00Z,30.2513,-88.0778,-1.72,13.8,11111222 
DISL,ioos:station:DISL:DISL:1,2019-02-11T04:30:00Z,30.2513,-88.0778,-1.72,14.06,11111222 
DISL,ioos:station:DISL:DISL:1,2019-02-11T06:00:00Z,30.2513,-88.0778,-1.72,14.18,11111222 
DISL,ioos:station:DISL:DISL:1,2019-02-11T06:30:00Z,30.2513,-88.0778,-1.72,14.18,11111222 
DISL,ioos:station:DISL:DISL:1,2019-02-11T07:30:00Z,30.2513,-88.0778,-1.72,14.22,11111222 
DISL,ioos:station:DISL:DISL:1,2019-02-11T08:30:00Z,30.2513,-88.0778,-1.72,14.09,11111222 
DISL,ioos:station:DISL:DISL:1,2019-02-11T09:30:00Z,30.2513,-88.0778,-1.72,13.82,11111222 
DISL,ioos:station:DISL:DISL:1,2019-02-11T10:30:00Z,30.2513,-88.0778,-1.72,13.94,11111222 
DISL,ioos:station:DISL:DISL:1,2019-02-11T11:30:00Z,30.2513,-88.0778,-1.72,13.87,11111222 
DISL,ioos:station:DISL:DISL:1,2019-02-11T12:30:00Z,30.2513,-88.0778,-1.72,14.11,11111222 
DISL,ioos:station:DISL:DISL:1,2019-02-11T13:30:00Z,30.2513,-88.0778,-1.72,14.09,11111222 
DISL,ioos:station:DISL:DISL:1,2019-02-11T14:30:00Z,30.2513,-88.0778,-1.72,14.18,11111222 
DISL,ioos:station:DISL:DISL:1,2019-02-11T15:30:00Z,30.2513,-88.0778,-1.72,14.31,11111222 
DISL,ioos:station:DISL:DISL:1,2019-02-11T16:30:00Z,30.2513,-88.0778,-1.72,15.02,11111222 
DISL,ioos:station:DISL:DISL:1,2019-02-11T17:30:00Z,30.2513,-88.0778,-1.72,15.45,11111222 
DISL,ioos:station:DISL:DISL:1,2019-02-11T18:30:00Z,30.2513,-88.0778,-1.72,15.33,11111222 
DISL,ioos:station:DISL:DISL:1,2019-02-11T19:30:00Z,30.2513,-88.0778,-1.72,15.49,11111222 
DISL,ioos:station:DISL:DISL:1,2019-02-11T20:30:00Z,30.2513,-88.0778,-1.72,15.29,11111222 
DISL,ioos:station:DISL:DISL:1,2019-02-11T21:30:00Z,30.2513,-88.0778,-1.72,15.1,11111222 
DISL,ioos:station:DISL:DISL:1,2019-02-11T22:30:00Z,30.2513,-88.0778,-1.72,15.09,11111222 
DISL,ioos:station:DISL:DISL:1,2019-02-11T23:30:00Z,30.2513,-88.0778,-1.72,15.08,11111222 
DISL,ioos:station:DISL:DISL:1,2019-02-12T00:30:00Z,30.2513,-88.0778,-1.72,14.82,11111222 
DISL,ioos:station:DISL:DISL:1,2019-02-12T01:30:00Z,30.2513,-88.0778,-1.72,14.81,11111222 
DISL,ioos:station:DISL:DISL:1,2019-02-12T02:30:00Z,30.2513,-88.0778,-1.72,14.67,11111222 